Cloud_Cover
39 5 5 5 0 5 5 5 5 6 1 0 5 5 0 0 5 0 5 3 6 8 72 82 100 100 88 98 55 99 100 100 100 100 83 6 87 100 100 100 100 100 100 100
76 5 4 0 0 5 5 100 3 0 0 0 4 0 0 0 0 0 5 1 5 36 58 56 96 84 64 84 94 96 98 91 98 100 82 91 100 80 99 100 100 100 100 100
5 5 0 1 5 0 15 8 0 4 5 8 4 5 0 0 0 0 4 2 1 13 71 100 100 100 94 100 93 96 74 90 98 100 100 100 99 94 100 100 100 100 100 100
5 5 0 5 58 97 100 4 8 4 0 1 0 0 2 1 4 0 2 1 21 100 95 100 100 100 100 100 100 100 41 99 100 100 100 93 100 100 100 100 100 100 100 100
4 16 11 9 100 74 4 2 2 3 5 0 0 3 2 23 1 5 3 52 74 52 86 100 100 100 100 100 100 100 55 99 98 100 100 100 100 100 100 100 100 100 100 100
20 92 83 100 90 9 5 48 0 0 3 1 1 4 0 0 5 2 27 94 75 5 92 100 100 100 100 100 100 100 83 73 100 98 100 99 100 100 100 100 100 100 100 100
63 81 100 100 85 3 3 21 4 5 1 3 0 5 18 2 5 39 8 95 12 5 60 99 87 87 97 99 74 62 68 98 78 87 70 64 100 100 100 100 100 100 100 100
98 100 100 28 5 83 1 5 4 5 5 23 7 5 12 4 17 29 99 10 5 5 67 38 68 88 73 42 9 9 50 68 87 94 82 92 98 100 100 100 100 100 100 100
100 100 96 89 9 0 4 46 50 5 5 5 5 6 16 12 25 0 0 0 5 5 5 99 100 87 90 100 100 100 100 96 97 100 100 100 100 100 100 100 100 100 100 100
100 98 100 99 2 0 2 5 50 5 5 5 5 26 20 72 52 15 5 2 5 5 8 6 5 5 28 93 85 100 100 100 80 100 100 100 100 96 100 100 80 100 100 100
99 100 100 74 51 2 0 4 17 5 5 3 23 20 66 44 64 5 2 2 9 1 3 5 20 49 82 100 72 99 98 84 100 100 83 99 100 100 100 100 100 100 100 100
100 100 85 4 2 0 0 4 37 5 4 0 6 0 0 5 17 9 5 3 26 5 73 81 77 56 89 100 80 98 98 100 100 100 100 100 100 100 100 98 100 100 100 99
100 100 5 0 0 0 0 6 44 5 5 5 5 0 1 4 5 5 6 29 8 23 22 91 87 100 100 100 100 99 99 100 100 100 83 100 100 100 76 100 100 98 100 100
100 30 2 0 0 0 0 4 34 0 1 4 3 3 0 4 5 5 52 5 30 100 84 10 59 63 86 88 95 85 100 99 100 35 17 88 71 65 76 100 98 100 100 80
93 100 5 5 3 1 3 5 4 3 3 2 4 4 0 0 5 5 12 29 64 100 100 100 100 100 100 100 83 100 100 100 100 98 99 100 77 48 100 100 100 90 100 80
50 100 0 0 4 5 1 0 1 0 0 1 5 1 1 0 1 1 6 100 100 100 100 100 100 100 100 100 99 100 100 100 100 100 100 100 99 96 98 100 98 29 100 100
100 100 0 0 0 0 0 1 2 1 4 2 3 5 0 0 4 5 3 12 97 100 33 73 100 100 100 100 100 100 100 100 100 100 100 70 20 79 25 74 45 55 86 95
100 63 0 0 0 0 4 31 0 0 0 0 5 3 1 0 5 5 4 5 5 52 51 98 100 94 98 96 100 100 100 100 95 96 100 100 85 92 100 93 84 92 5 15
93 0 0 0 0 0 1 2 0 1 0 5 5 100 52 2 12 5 4 5 5 28 12 96 93 51 100 100 100 100 100 100 100 70 86 100 100 99 66 68 95 100 82 73
0 0 0 0 0 0 0 0 0 0 5 5 35 99 28 53 5 8 6 5 81 95 47 86 89 92 9 99 100 100 100 100 100 100 98 100 94 100 100 100 100 100 100 100
0 0 0 0 0 0 0 3 2 5 3 21 70 99 95 76 83 85 90 94 51 5 5 85 90 42 6 98 100 100 100 100 100 100 100 100 100 100 100 100 100 100 100 96
0 0 0 0 0 2 0 32 1 3 5 5 47 94 81 65 96 97 34 87 11 0 5 5 33 5 21 100 100 100 100 100 100 100 100 100 100 100 100 100 100 100 100 100
0 0 0 1 2 0 1 4 0 5 5 44 75 83 91 11 47 70 71 1 3 4 5 3 5 5 53 100 100 100 100 100 100 100 100 100 100 100 100 97 66 100 100 100
0 2 0 2 3 5 5 5 5 5 28 60 100 82 95 42 5 83 1 8 10 1 12 2 3 6 100 100 100 100 100 100 100 100 100 100 100 100 89 97 75 100 89 96
1 1 1 2 3 5 5 10 18 9 58 100 76 54 20 5 2 12 2 0 1 13 5 4 8 93 100 100 100 100 100 100 100 100 100 100 100 96 5 5 79 100 100 97
0 2 6 22 5 5 5 5 5 42 100 81 16 4 1 7 12 0 52 3 3 2 5 3 84 74 100 100 100 100 100 100 100 100 100 100 100 36 5 7 67 100 100 93
0 2 29 5 5 5 5 37 5 48 24 88 12 0 0 3 2 0 5 5 2 0 10 37 45 76 80 63 100 100 100 100 100 100 100 100 26 5 5 89 100 98 99 5